Home   Weather   Fairfield Arena   Past weeks
Flag for USA

Past Weather in Fairfield Arena, Texas, USA — Yesterday and Last 2 Weeks

Now
53 °F

Clear.


Feels Like: 53 °F
Forecast: 69 / 48 °F
Wind: No wind

Location: Palestine Municipal Airport

Current Time: Dec 7, 2019 at 8:51:43 pm

Latest Report: Dec 7, 2019 at 8:15 pm


Visibility: 10 mi

Pressure: 30.20 "Hg

Humidity: 84%

Dew Point: 48 °F

Location of Fairfield ArenaLocation

Past Weather in Fairfield Arena — Graph

°F

Fairfield Arena Temperature Yesterday

Maximum temperature yesterday: 68 °F (at 2:35 pm)
Minimum temperature yesterday: 50 °F (at 11:55 pm)
Average temperature yesterday: 60 °F

High & Low Weather Summary for the Past Weeks

 TemperatureHumidityPressure
High80 °F (Nov 30, 1:15 pm)100% (Nov 24, 12:15 am)30.36 "Hg (Nov 24, 12:15 am)
Low31 °F (Dec 2, 4:35 am)25% (Nov 27, 1:35 am)29.59 "Hg (Nov 26, 2:55 pm)
Average56 °F69%30.04 "Hg
* Reported Nov 22 7:15 pm — Dec 7 7:35 pm, Fairfield Arena. Weather by CustomWeather, © 2019

Note: Actual official high and low records may vary slightly from our data, if they occured in-between our weather recording intervals... More about our weather records

Fairfield Arena Weather History for the Previous 24 Hours

Scroll right to see more
 ConditionsComfort  
Time TempWeatherWind HumidityBarometerVisibility
7:35 pm
Sat, Dec 7
51 °FClear.No wind87%30.20 "Hg10 mi
7:15 pm51 °FClear.3 mph88%30.20 "Hg10 mi
6:35 pm53 °FClear.No wind85%30.21 "Hg10 mi
6:15 pm55 °FClear.No wind77%30.21 "Hg10 mi
5:55 pm57 °FClear.No wind72%30.21 "Hg10 mi
5:35 pm61 °FClear.No wind65%30.21 "Hg10 mi
5:15 pm62 °FSunny.No wind61%30.20 "Hg10 mi
4:55 pm64 °FSunny.No wind57%30.20 "Hg10 mi
4:35 pm65 °FSunny.3 mph56%30.20 "Hg10 mi
4:15 pm65 °FSunny.3 mph55%30.20 "Hg10 mi
3:55 pm66 °FSunny.No wind54%30.20 "Hg10 mi
3:35 pm66 °FSunny.3 mph54%30.21 "Hg10 mi
3:15 pm66 °FSunny.No wind54%30.22 "Hg10 mi
2:55 pm66 °FSunny.No wind52%30.23 "Hg10 mi
2:35 pm66 °FSunny.5 mph55%30.23 "Hg10 mi
2:15 pm66 °FSunny.No wind55%30.24 "Hg10 mi
1:55 pm65 °FSunny.No wind55%30.24 "Hg10 mi
1:35 pm64 °FSunny.No wind56%30.25 "Hg10 mi
1:15 pm65 °FSunny.No wind55%30.27 "Hg10 mi
12:55 pm63 °FSunny.No wind58%30.28 "Hg10 mi
12:35 pm62 °FSunny.No wind59%30.29 "Hg10 mi
12:15 pm61 °FSunny.No wind60%30.30 "Hg10 mi
11:55 am61 °FSunny.No wind61%30.31 "Hg10 mi
11:35 am60 °FSunny.5 mph63%30.32 "Hg10 mi
11:15 am59 °FSunny.No wind64%30.33 "Hg10 mi
10:55 am57 °FSunny.No wind66%30.33 "Hg10 mi
10:35 am54 °FSunny.No wind70%30.34 "Hg10 mi
10:15 am52 °FSunny.No wind73%30.35 "Hg10 mi
9:55 am50 °FSunny.No wind75%30.35 "Hg10 mi
9:35 am48 °FSunny.No wind78%30.34 "Hg10 mi
9:15 am47 °FSunny.3 mph81%30.33 "Hg10 mi
8:55 am46 °FSunny.No wind84%30.33 "Hg10 mi
8:35 am45 °FSunny.No wind87%30.33 "Hg10 mi
8:15 am43 °FSunny.No wind92%30.33 "Hg10 mi
7:55 am40 °FSunny.No wind96%30.33 "Hg10 mi
7:35 am39 °FSunny.No wind97%30.33 "Hg10 mi
7:15 am38 °FSunny.No wind95%30.32 "Hg10 mi
6:55 am39 °FClear.No wind93%30.32 "Hg10 mi
6:35 am41 °FClear.No wind92%30.31 "Hg10 mi
5:55 am41 °FClear.No wind92%30.30 "Hg10 mi
5:35 am41 °FClear.No wind94%30.30 "Hg10 mi
5:15 am40 °FClear.3 mph91%30.30 "Hg10 mi
4:55 am42 °FClear.3 mph89%30.29 "Hg10 mi
4:35 am42 °FClear.No wind89%30.29 "Hg10 mi
4:15 am43 °FClear.No wind87%30.28 "Hg10 mi
3:55 am43 °FClear.3 mph87%30.29 "Hg10 mi
3:35 am43 °FClear.No wind87%30.29 "Hg10 mi
2:55 am45 °FClear.No wind83%30.29 "Hg10 mi
2:35 am44 °FClear.5 mph83%30.29 "Hg10 mi
1:55 am46 °FClear.3 mph80%30.29 "Hg10 mi
1:35 am48 °FClear.6 mph75%30.29 "Hg10 mi
1:10 am48 °FClear.6 mph75%30.30 "Hg10 mi
12:55 am49 °FClear.6 mph73%30.30 "Hg10 mi
12:35 am49 °FClear.5 mph75%30.30 "Hg10 mi
12:15 am48 °FClear.3 mph76%30.30 "Hg10 mi
11:55 pm
Fri, Dec 6
50 °FClear.6 mph71%30.30 "Hg10 mi
11:35 pm51 °FClear.3 mph70%30.30 "Hg10 mi
11:15 pm52 °FClear.No wind66%30.30 "Hg10 mi
10:50 pm51 °FClear.5 mph70%30.29 "Hg10 mi
10:35 pm51 °FClear.6 mph71%30.29 "Hg10 mi
10:15 pm53 °FClear.8 mph66%30.28 "Hg10 mi
9:55 pm54 °FClear.7 mph66%30.28 "Hg10 mi
9:35 pm54 °FClear.7 mph65%30.28 "Hg10 mi
9:15 pm56 °FClear.9 mph64%30.28 "Hg10 mi
8:50 pm56 °FClear.8 mph65%30.28 "Hg10 mi
8:35 pm57 °FClear.7 mph63%30.27 "Hg10 mi
8:15 pm58 °FClear.9 mph62%30.26 "Hg10 mi
Weather by CustomWeather, © 2019

See weather overview

Advertising